Regional Weather Roundup
Issued by NWS Kansas City/Pleasant Hill, MO

Home | Current Version | Previous Version | Text Only | Print | Product List | Glossary On
Versions: 1 2 3 4 5 6 7 8 9 10 11 12 13 14 15 16 17 18 19 20 21 22 23 24 25 26 27 28 29 30 31 32 33 34 35 36 37 38 39 40 41 42 43 44 45 46 47 48 49 50
000
ASUS43 KEAX 190104
RWREAX

WEATHER ROUNDUP FOR EASTERN KANSAS AND NORTHWEST MISSOURI
NATIONAL WEATHER SERVICE KANSAS CITY/PLEASANT HILL MO
700 PM CST THU DEC 18 2014

KSZ040-057-103>105-MOZ028-029-037-043-190200-
...KANSAS CITY METROPOLITAN AREA...

CITY           SKY/WX    TMP DP  RH WIND       PRES   REMARKS
K.C. INTL      CLOUDY    32  29  88 NE7       30.23R WCI  26
K.C. DOWNTOWN  CLOUDY    33  29  85 NE6       30.24R WCI  28
LEES SUMMIT    CLOUDY    32  29  88 E6        30.23R WCI  26
OLATHE - IXD   CLOUDY    32  30  92 N3        30.22R FOG
OLATHE - OJC   CLOUDY    32  30  92 NE5       30.21R FOG     WCI  27
LAWRENCE       CLOUDY    32  29  88 CALM      30.24R

$$

MOZ001>008-011>017-020>025-030>033-038>040-044>046-053-054-190200-
...NORTHERN AND CENTRAL MISSOURI...

CITY           SKY/WX    TMP DP  RH WIND       PRES   REMARKS
ST. JOSEPH     CLOUDY    31  27  85 E3        30.25R
MOSBY          CLOUDY    32  30  93 NE3       30.25R
WARRENSBURG    CLOUDY    32  32 100 NE3       30.23S FOG
WHITEMAN AFB   NOT AVBL
CLINTON        CLOUDY    36  34  93 NE6       30.23R FOG     WCI  31
SEDALIA        CLOUDY    34  31  88 E5        30.24R WCI  30
WARSAW         NOT AVBL
MARSHALL       CLOUDY    34  34 100 NE5       30.25R WCI  30
CHILLICOTHE      N/A     31  26  82 NE3       30.27R
MOBERLY        CLOUDY    32  27  80 E7        30.25R WCI  26
KIRKSVILLE     CLOUDY    29  27  92 E6        30.25S WCI  23

$$

MOZ041-047>049-056>058-063>065-088>090-097-190200-
...EASTERN AND SOUTHERN MISSOURI...

CITY           SKY/WX    TMP DP  RH WIND       PRES   REMARKS
ST. LOUIS INTL CLOUDY    35  25  66 E6        30.26R WCI  30
SPIRIT OF STL  CLOUDY    34  28  79 N3        30.26R
COLUMBIA       CLOUDY    32  30  92 E6        30.24R WCI  26
JEFFERSON CITY CLOUDY    34  30  85 NE6       30.26R WCI  29
MEXICO         CLOUDY   N/A N/A N/A NE6       30.25R
HANNIBAL       CLOUDY    32  25  74 CALM      30.27R
ROLLA          FOG       33  32  96 NE6       30.20R VSB 1   WCI  28
OSAGE BEACH    CLOUDY    36  32  87 NE3       30.22R VSB 1/2
SPRINGFIELD    CLOUDY    38  36  92 E3        30.18R
BRANSON        CLOUDY    37  37 100 CALM      30.19R FOG
NEVADA         CLOUDY    34  34 100 N3        30.23R
JOPLIN         CLOUDY    37  36  96 NE6       30.20R WCI  32
WEST PLAINS    CLOUDY    37  34  89 CALM      30.20R

$$

IAZ060-094-KSZ022-034>040-054-083-096-NEZ052-066-093-190200-
...KANSAS...SOUTHEAST NEBRASKA AND IOWA...

CITY           SKY/WX    TMP DP  RH WIND       PRES   REMARKS
TOPEKA         CLOUDY    33  29  85 NE3       30.24R
MANHATTAN      CLOUDY    33  28  81 NE5       30.22R WCI  29
EMPORIA        CLOUDY    32  30  92 NE3       30.21R
CHANUTE        CLOUDY    34  32  92 N5        30.22R WCI  30
WICHITA        CLOUDY    33  29  85 N8        30.20R WCI  26
OMAHA          CLOUDY    31  26  82 SE6       30.23S WCI  25
LINCOLN        CLOUDY    32  27  81 CALM      30.22R
FALLS CITY     CLOUDY    30  27  88 CALM      30.23R
LAMONI         CLOUDY    29  25  85 CALM      30.23R
DES MOINES     CLOUDY    29  22  75 SE5       30.26R WCI  24

$$



USA.gov is the U.S. government's official web portal to all federal, state and local government web resources and services.